Wind_Speed
8 7 5 5 5 4 4 4 4 4 4 5 6 6 7 8 9 8 8 8 8 8 9 9 8 9 9 9 9 9 9 9 8 8 9 8 8 8 8 8 8 8 8
8 8 6 5 6 5 5 5 5 5 5 6 7 7 8 8 8 9 10 9 10 10 10 10 10 9 10 10 11 11 11 10 10 9 10 11 10 10 10 9 9 9 10
8 8 7 7 6 6 6 5 6 6 7 7 7 8 9 8 9 10 11 11 11 10 10 11 11 11 11 11 11 12 12 11 11 10 11 11 12 12 11 11 11 11 12
9 8 8 7 7 6 6 6 6 7 7 7 7 8 8 8 8 9 10 11 12 11 11 11 11 11 12 12 12 13 12 12 12 11 12 12 13 13 13 13 12 12 13
9 9 9 8 7 7 6 6 7 7 8 8 7 8 9 10 9 9 10 11 11 11 11 11 12 12 12 13 13 13 13 12 12 12 12 13 13 13 14 15 14 14 14
10 9 9 9 8 7 8 8 8 8 8 8 8 8 9 10 10 10 10 11 11 11 11 12 12 12 13 13 14 14 13 13 13 13 13 14 14 14 14 15 15 15 16
10 10 10 9 8 8 9 9 9 8 8 8 8 8 8 9 10 10 10 10 10 10 10 10 10 11 12 14 14 15 15 16 15 15 15 15 15 14 14 15 16 16 16
10 10 9 9 10 10 10 10 9 9 8 8 8 8 8 9 10 10 10 10 10 10 11 11 11 13 13 14 14 15 16 17 17 17 17 16 16 15 15 15 15 16 16
11 11 9 10 10 11 10 11 9 9 9 9 9 9 9 10 10 10 10 11 12 12 12 12 12 13 13 14 15 15 16 16 16 17 17 17 17 17 17 17 17 17 17
12 11 11 11 11 11 11 10 10 10 10 10 10 10 10 11 10 10 10 11 12 12 13 13 13 13 13 14 15 16 16 16 16 17 17 17 18 18 18 18 18 18 18
13 12 12 12 12 12 12 12 11 12 11 11 11 11 11 10 10 10 11 12 12 13 13 13 14 14 14 14 15 16 16 17 17 17 17 18 18 19 19 19 19 20 20
14 14 14 14 14 14 13 14 14 14 13 12 12 12 12 12 12 12 13 14 14 15 15 15 15 16 16 16 17 18 18 18 18 18 18 18 19 19 20 20 21 20 21
15 15 16 16 16 15 15 16 16 15 15 14 13 13 13 14 14 15 15 15 15 16 17 17 17 18 18 19 19 19 19 20 20 20 20 20 21 21 21 21 21 22 21
17 17 18 18 17 17 17 17 16 16 16 16 15 15 16 16 16 16 17 17 17 17 18 18 19 20 20 21 21 21 21 21 22 22 22 22 23 22 23 23 23 23 23
19 19 19 18 18 17 18 17 17 17 18 18 18 18 18 18 18 18 19 19 19 19 20 20 20 20 21 21 21 22 22 23 23 23 23 23 22 23 24 23 24 25 24
20 20 20 19 19 19 19 18 18 19 19 19 19 19 19 20 20 20 21 21 21 22 22 21 21 21 21 21 21 22 23 23 23 23 24 24 24 24 24 24 25 25 25
22 21 21 21 20 20 19 20 20 20 21 21 21 21 21 22 22 22 22 22 23 23 23 22 22 22 23 23 23 24 24 24 25 25 25 26 26 26 26 26 26 26 26
23 22 22 22 21 20 20 20 20 21 22 23 23 23 23 23 24 24 24 24 24 24 24 23 24 24 24 25 24 25 25 26 26 26 26 26 27 26 27 27 27 27 28
24 23 22 22 21 21 21 22 22 23 24 24 25 24 24 25 25 26 26 26 26 25 25 25 25 26 26 26 26 27 27 27 27 27 27 28 28 28 28 29 29 30 30
24 24 23 23 23 23 23 23 23 25 25 25 26 26 26 26 26 26 26 26 26 26 26 26 26 27 28 28 28 28 29 29 28 28 28 28 28 29 30 30 31 31 31
24 24 25 25 25 25 25 25 25 26 27 27 27 28 27 27 26 27 27 26 27 27 27 27 27 28 29 29 29 29 28 28 28 29 30 30 30 30 31 32 31 31 32
24 25 25 26 26 26 26 26 27 27 28 27 27 28 28 28 27 27 26 27 27 27 27 27 27 27 28 29 29 29 29 29 29 30 30 30 30 30 31 31 32 33 33
25 25 25 25 26 27 27 28 28 28 29 29 29 29 28 28 28 28 28 28 27 27 27 27 27 28 29 29 29 30 31 31 31 31 31 31 31 31 31 31 32 33 33
26 26 26 26 27 28 29 29 30 29 30 30 30 30 29 29 29 29 29 28 28 28 29 29 29 29 29 29 30 31 31 32 31 31 32 31 31 31 30 30 31 32 32
27 28 29 29 28 29 29 30 30 31 31 31 32 31 31 30 29 29 29 29 29 30 30 30 30 30 30 31 31 31 31 31 31 31 31 31 30 30 30 31 32 32 32
29 29 30 29 29 30 31 31 31 32 32 32 33 32 32 31 30 29 29 29 30 30 30 31 30 30 30 30 31 31 31 31 30 30 29 30 30 30 30 30 31 32 32
Wind_Direction
11 5 1 357 355 338 321 322 319 306 293 281 274 265 263 247 243 243 243 245 248 252 250 246 250 251 243 243 243 241 245 246 251 251 248 245 246 251 252 252 250 244 239
9 3 357 352 350 345 327 315 312 303 296 286 281 271 268 261 254 251 251 251 252 253 251 249 251 253 248 247 249 248 250 250 252 254 252 249 249 251 253 253 250 245 241
1 0 357 353 347 334 330 323 318 311 300 294 284 276 269 267 262 260 255 254 254 253 252 253 252 253 252 251 252 252 253 252 252 253 253 252 254 256 257 253 252 249 246
356 358 355 355 351 340 334 328 320 315 309 299 286 274 265 263 263 264 260 256 256 256 256 258 258 256 257 254 255 256 256 255 254 256 257 256 255 254 253 252 254 252 250
355 358 356 352 349 346 341 335 325 317 308 304 294 280 268 265 266 263 263 260 261 261 258 259 260 259 258 257 256 256 257 256 257 261 262 260 256 256 252 253 253 253 254
358 355 354 351 345 338 339 337 329 321 311 304 297 289 280 275 271 264 262 261 260 263 263 261 261 263 261 257 257 257 258 256 256 259 261 262 262 259 255 254 253 254 254
355 351 351 351 350 345 339 335 332 321 315 310 305 295 288 282 274 272 267 264 262 262 264 265 265 264 265 261 260 259 259 259 260 261 263 265 261 259 254 253 254 256 257
354 353 348 350 346 342 339 333 330 325 320 314 307 302 293 287 278 272 266 263 262 266 267 265 266 264 264 263 263 264 264 264 262 263 266 265 259 257 257 257 257 258 258
347 351 346 341 339 337 332 330 326 321 318 309 302 299 285 278 279 276 270 267 269 271 272 271 269 268 267 265 264 265 266 269 265 263 265 263 260 261 260 258 259 261 259
337 338 340 337 334 332 330 328 321 319 315 311 305 301 293 280 274 275 283 279 277 275 277 278 277 271 273 271 268 266 266 267 265 263 263 263 261 260 261 263 262 262 261
329 327 327 327 325 324 326 321 316 314 312 310 302 297 294 288 280 280 282 280 278 278 278 278 278 276 275 274 273 270 269 267 269 267 265 265 264 263 262 262 263 262 263
324 321 319 319 317 316 317 316 313 310 306 304 301 296 292 287 284 280 279 278 277 278 277 277 277 275 275 275 275 274 272 271 271 269 267 267 267 266 265 263 261 262 261
318 315 313 312 311 310 311 311 310 307 303 300 298 295 293 289 286 283 282 279 276 278 278 279 277 276 275 274 274 274 273 271 269 269 269 267 268 267 266 264 263 262 261
314 312 311 310 308 307 307 307 306 306 303 301 297 295 293 290 286 283 283 281 279 278 279 279 278 276 276 274 273 274 274 272 270 269 269 269 268 267 265 264 263 263 262
310 308 308 307 307 306 305 303 301 300 299 298 297 294 292 289 285 283 282 280 280 279 278 278 277 276 276 276 277 276 274 272 270 270 270 271 269 267 265 264 264 263 262
307 305 305 306 305 303 301 301 299 298 295 294 293 293 291 288 286 284 283 280 279 278 277 277 276 274 274 275 276 275 273 271 270 270 270 270 270 268 266 266 264 262 263
304 302 302 303 302 300 299 297 294 293 294 292 290 290 290 289 285 282 281 280 278 278 278 276 274 274 274 275 274 275 274 273 271 270 268 267 268 268 267 266 266 263 263
304 300 300 300 300 298 297 295 295 293 293 293 290 288 288 287 287 284 281 279 277 276 275 275 274 273 272 272 273 275 274 273 271 269 268 267 267 268 266 266 265 265 265
302 302 301 299 300 299 298 297 297 296 293 292 290 286 285 285 286 287 283 280 278 276 274 274 273 272 271 270 272 273 273 272 271 270 269 268 267 268 268 267 265 265 264
299 300 301 301 298 297 297 297 297 296 294 291 289 287 286 286 286 286 284 281 279 278 275 274 273 272 272 271 272 273 273 273 272 271 270 269 268 267 267 267 266 265 264
297 298 298 300 299 298 298 297 296 295 295 293 291 289 289 287 286 285 283 282 280 278 278 276 275 275 274 273 272 273 275 274 273 272 271 270 269 269 268 266 266 266 265
297 297 298 298 298 297 297 297 296 296 295 294 294 292 290 288 286 284 283 282 281 280 280 279 277 276 276 274 274 275 275 275 274 273 272 272 272 270 269 266 265 266 266
301 299 298 299 298 297 297 296 296 296 296 295 294 293 290 289 286 284 282 281 281 281 280 279 278 277 276 274 275 275 274 273 273 272 271 272 273 273 271 268 267 267 267
299 298 298 299 298 298 297 296 296 295 295 296 295 293 291 289 287 285 284 283 282 280 280 279 278 277 278 277 276 276 274 273 272 272 272 271 271 271 271 270 269 269 267
298 299 300 299 298 297 297 296 296 296 296 295 294 293 291 289 285 284 282 282 282 281 281 281 280 278 278 278 277 275 275 273 272 272 272 271 270 271 271 270 269 269 269
297 298 298 298 298 297 297 297 297 296 296 295 293 291 290 288 285 284 283 283 283 283 283 283 281 280 280 279 278 277 276 274 273 273 273 272 271 271 271 270 269 269 270
Height
5893 5892 5891 5890 5888 5888 5887 5886 5886 5886 5885 5885 5884 5884 5884 5884 5884 5884 5885 5885 5885 5885 5885 5886 5886 5886 5886 5887 5887 5887 5887 5888 5888 5888 5888 5888 5888 5889 5889 5889 5889 5889 5890
5893 5891 5890 5889 5888 5887 5887 5886 5885 5885 5884 5883 5882 5882 5882 5882 5881 5882 5882 5883 5883 5883 5883 5883 5884 5884 5884 5885 5885 5885 5885 5885 5885 5886 5886 5886 5886 5887 5887 5887 5887 5887 5888
5892 5891 5889 5888 5887 5886 5886 5885 5884 5883 5882 5881 5881 5880 5880 5880 5880 5880 5880 5880 5881 5881 5881 5881 5881 5881 5882 5882 5882 5882 5882 5883 5883 5883 5883 5883 5884 5884 5884 5885 5885 5885 5886
5891 5890 5889 5888 5886 5885 5884 5883 5882 5881 5880 5880 5879 5878 5878 5878 5878 5878 5878 5878 5878 5878 5878 5878 5878 5879 5879 5879 5879 5879 5880 5879 5880 5880 5880 5881 5881 5881 5881 5882 5882 5883 5883
5891 5889 5888 5886 5885 5884 5883 5882 5880 5880 5879 5878 5877 5876 5876 5876 5876 5876 5875 5875 5875 5875 5876 5876 5876 5876 5876 5876 5876 5876 5877 5876 5877 5877 5877 5877 5877 5878 5878 5879 5879 5880 5880
5890 5888 5887 5886 5884 5883 5882 5880 5879 5878 5877 5876 5875 5874 5874 5873 5873 5873 5873 5873 5873 5873 5873 5873 5873 5873 5872 5872 5873 5873 5873 5873 5874 5874 5874 5874 5874 5874 5875 5875 5876 5876 5876
5889 5887 5886 5885 5883 5882 5880 5879 5878 5877 5876 5874 5874 5873 5872 5871 5870 5870 5870 5870 5870 5870 5870 5870 5870 5869 5869 5869 5869 5869 5870 5870 5870 5870 5870 5870 5870 5870 5871 5871 5872 5872 5873
5888 5886 5885 5884 5882 5880 5879 5878 5876 5875 5874 5873 5872 5871 5870 5869 5868 5868 5867 5867 5867 5867 5867 5866 5866 5866 5866 5866 5866 5866 5866 5866 5866 5866 5866 5866 5866 5867 5867 5867 5867 5868 5869
5887 5885 5884 5883 5881 5879 5878 5876 5874 5873 5872 5871 5870 5869 5868 5867 5866 5866 5865 5864 5864 5864 5864 5863 5863 5863 5862 5862 5862 5862 5862 5862 5862 5862 5862 5862 5862 5862 5863 5863 5863 5863 5864
5886 5884 5882 5881 5879 5878 5876 5874 5872 5871 5869 5868 5867 5866 5865 5864 5864 5863 5863 5862 5861 5861 5860 5860 5860 5859 5859 5858 5858 5858 5858 5858 5857 5857 5857 5857 5858 5858 5858 5858 5859 5859 5859
5884 5882 5880 5879 5877 5875 5873 5872 5870 5868 5867 5865 5864 5863 5862 5861 5860 5860 5860 5859 5858 5858 5857 5857 5856 5855 5855 5854 5854 5854 5853 5853 5853 5853 5853 5853 5853 5853 5853 5853 5853 5854 5854
5881 5879 5878 5876 5874 5872 5870 5869 5867 5865 5864 5862 5860 5859 5858 5857 5856 5856 5856 5855 5854 5853 5852 5852 5851 5851 5850 5849 5849 5849 5849 5848 5848 5848 5848 5847 5847 5847 5847 5847 5848 5848 5848
5878 5876 5874 5873 5871 5869 5867 5865 5863 5861 5860 5858 5857 5855 5854 5853 5852 5851 5851 5850 5849 5848 5847 5847 5846 5845 5845 5844 5844 5844 5843 5843 5843 5842 5842 5842 5842 5841 5842 5842 5842 5842 5842
5874 5872 5870 5868 5866 5864 5863 5861 5859 5857 5855 5854 5852 5851 5850 5848 5847 5846 5846 5845 5844 5843 5842 5842 5841 5840 5839 5838 5838 5838 5837 5837 5836 5836 5836 5836 5835 5835 5835 5835 5835 5835 5836
5870 5868 5866 5863 5861 5860 5858 5856 5854 5852 5850 5849 5847 5846 5844 5842 5841 5840 5839 5838 5838 5837 5837 5836 5835 5834 5833 5832 5832 5831 5831 5830 5830 5830 5830 5829 5829 5828 5828 5828 5829 5829 5829
5865 5863 5860 5858 5856 5854 5852 5850 5848 5846 5844 5843 5841 5840 5838 5836 5835 5833 5832 5831 5830 5830 5830 5829 5828 5827 5826 5826 5825 5824 5824 5823 5823 5823 5823 5822 5822 5822 5821 5821 5821 5822 5822
5859 5857 5855 5852 5850 5848 5846 5844 5843 5841 5838 5836 5835 5833 5831 5830 5828 5827 5825 5824 5823 5822 5822 5822 5821 5820 5820 5819 5818 5817 5817 5816 5816 5816 5815 5815 5815 5814 5814 5814 5814 5814 5814
5853 5851 5849 5847 5844 5842 5840 5838 5836 5834 5832 5829 5827 5825 5824 5823 5821 5819 5817 5816 5815 5814 5814 5813 5813 5813 5812 5811 5811 5810 5809 5809 5808 5808 5807 5807 5807 5807 5806 5806 5806 5806 5806
5847 5845 5843 5841 5838 5836 5834 5832 5830 5827 5824 5822 5820 5818 5817 5815 5813 5811 5810 5808 5807 5806 5805 5805 5804 5804 5804 5803 5803 5802 5801 5800 5800 5799 5799 5798 5798 5798 5798 5798 5798 5798 5798
5841 5839 5836 5834 5832 5829 5827 5825 5823 5820 5817 5814 5812 5810 5808 5806 5804 5803 5801 5800 5799 5798 5797 5796 5796 5795 5795 5794 5794 5793 5792 5791 5791 5791 5790 5789 5789 5789 5789 5789 5789 5789 5789
5834 5832 5830 5828 5825 5823 5820 5818 5815 5813 5810 5807 5804 5802 5800 5798 5796 5794 5792 5791 5790 5789 5788 5787 5787 5786 5786 5785 5784 5784 5783 5782 5781 5781 5781 5780 5780 5779 5779 5779 5779 5779 5779
5827 5825 5823 5820 5818 5815 5813 5810 5808 5805 5802 5799 5797 5794 5792 5789 5787 5785 5784 5783 5781 5780 5779 5778 5778 5777 5776 5775 5775 5774 5774 5773 5773 5772 5771 5771 5770 5769 5769 5769 5769 5769 5769
5820 5818 5816 5813 5810 5808 5805 5802 5799 5797 5794 5791 5788 5786 5783 5781 5779 5777 5775 5774 5772 5771 5770 5770 5769 5768 5767 5766 5765 5765 5764 5764 5763 5762 5762 5761 5761 5760 5760 5760 5760 5760 5759
5813 5811 5808 5805 5803 5800 5797 5794 5791 5788 5785 5782 5780 5777 5774 5772 5769 5767 5766 5764 5763 5762 5761 5760 5759 5758 5757 5756 5756 5755 5754 5754 5753 5753 5752 5752 5751 5751 5750 5750 5749 5749 5749
5805 5803 5800 5797 5794 5792 5788 5785 5782 5779 5776 5773 5770 5767 5764 5762 5760 5758 5757 5755 5754 5753 5751 5750 5749 5748 5747 5746 5745 5745 5744 5744 5743 5743 5742 5742 5742 5741 5741 5740 5739 5739 5738
5797 5795 5792 5789 5786 5783 5780 5776 5773 5770 5767 5764 5761 5758 5755 5752 5750 5748 5747 5746 5744 5743 5741 5740 5739 5738 5737 5736 5735 5734 5734 5734 5733 5733 5732 5732 5732 5731 5731 5731 5730 5729 5729